Weather History for Glendale Luke AFB, AZ

Change the Weather History Date:

Friday, March 7, 2014

  Actual Average Record
Temperature  
Mean Temperature 64 °F -  
Max Temperature 79 °F 76 °F 92 °F (1972)
Min Temperature 50 °F 42 °F 30 °F (1931)
Growing Degree Days 14 (Base 50)    
Moisture  
Dew Point 42 °F    
Average Humidity 48    
Maximum Humidity 83    
Minimum Humidity 27    
Precipitation  
Precipitation 0.00 in - - ()
Sea Level Pressure  
Sea Level Pressure 29.83 in    
Wind  
Wind Speed 6 mph (WNW)    
Max Wind Speed 17 mph    
Max Gust Speed -    
Visibility 10 miles    
Events      
Averages and records for this station are not official NWS values.
T = Trace of Precipitation, MM = Missing Value Source: NWS Daily Summary

Daily Weather History Graph

Daily Weather History Graph

Search for Another Location

Airport:

Trip Planner

Search our weather history database for the weather conditions in past years. The results will help you decide how hot, cold, wet, or windy it might be!

Date:

Astronomy

Mar. 07, 2014 Rise Set
Actual Time 6:50 AM MST 6:31 PM MST
Civil Twilight 6:25 AM MST 6:56 PM MST
Nautical Twilight 5:56 AM MST 7:24 PM MST
Astronomical Twilight 5:27 AM MST 7:53 PM MST
Moon 11:03 AM MST (3/7) 12:22 AM MST (3/7)
Length of Visible Light 12h 30m
Length of Day
11h 40m
Waxing Crescent, 42% of the Moon is Illuminated
Mar 7
Waxing Crescent
Mar 8
First Quarter
Mar 16
Full
Mar 23
Last Quarter
Mar 30
New

Hourly Weather History & Observations

Time (MST) Temp. Dew Point Humidity Pressure Visibility Wind Dir Wind Speed Gust Speed Precip Events Conditions
12:58 AM 54.7 °F 46.6 °F 74% 29.84 in 10.0 mi North 5.8 mph - N/A   Clear
1:58 AM 54.0 °F 45.7 °F 74% 29.84 in 10.0 mi North 5.8 mph - N/A   Clear
2:58 AM 53.1 °F 45.5 °F 75% 29.83 in 10.0 mi NNW 4.6 mph - N/A   Clear
3:58 AM 52.0 °F 46.6 °F 82% 29.81 in 10.0 mi NW 3.5 mph - N/A   Clear
4:58 AM 52.0 °F 45.7 °F 79% 29.83 in 10.0 mi NNE 4.6 mph - N/A   Clear
5:58 AM 52.0 °F 45.3 °F 78% 29.83 in 10.0 mi NNW 4.6 mph - N/A   Partly Cloudy
6:58 AM 50.4 °F 45.5 °F 83% 29.84 in 10.0 mi NNW 6.9 mph - N/A   Partly Cloudy
7:58 AM 55.0 °F 44.8 °F 68% 29.87 in 10.0 mi NE 5.8 mph - N/A   Partly Cloudy
8:58 AM 60.1 °F 45.9 °F 59% 29.88 in 10.0 mi NNE 2.3 mph - N/A   Partly Cloudy
9:58 AM 64.6 °F 43.3 °F 46% 29.88 in 10.0 mi SE 3.5 mph - N/A   Partly Cloudy
10:58 AM 68.4 °F 44.8 °F 43% 29.88 in 10.0 mi NNW 1.2 mph - N/A   Clear
11:58 AM 71.2 °F 41.9 °F 35% 29.88 in 10.0 mi SSW 4.6 mph - N/A   Clear
12:58 PM 73.8 °F 43.3 °F 34% 29.84 in 10.0 mi Variable 3.5 mph - N/A   Clear
1:58 PM 75.6 °F 43.7 °F 32% 29.81 in 10.0 mi SSW 8.1 mph - N/A   Clear
2:58 PM 77.7 °F 44.2 °F 30% 29.79 in 10.0 mi SW 6.9 mph - N/A   Clear
3:58 PM 79.0 °F 42.8 °F 28% 29.77 in 10.0 mi South 16.1 mph - N/A   Scattered Clouds
4:10 PM 78.8 °F 44.6 °F 30% 29.79 in 10.0 mi WSW 17.3 mph - N/A   Scattered Clouds
4:58 PM 78.6 °F 41.5 °F 27% 29.76 in 10.0 mi SSW 15.0 mph - N/A   Clear
5:58 PM 76.5 °F 41.5 °F 29% 29.77 in 10.0 mi SSW 12.7 mph - N/A   Clear
6:58 PM 72.7 °F 41.5 °F 32% 29.79 in 10.0 mi Variable 3.5 mph - N/A   Clear
7:58 PM 68.4 °F 38.1 °F 33% 29.81 in 10.0 mi SW 6.9 mph - N/A   Clear
8:58 PM 68.5 °F 33.8 °F 28% 29.81 in 10.0 mi WSW 5.8 mph - N/A   Clear
9:58 PM 67.6 °F 32.2 °F 27% 29.82 in 10.0 mi West 5.8 mph - N/A   Clear
10:58 PM 65.3 °F 34.2 °F 31% 29.83 in 10.0 mi NW 5.8 mph - N/A   Clear
11:58 PM 63.1 °F 33.3 °F 33% 29.85 in 10.0 mi North 3.5 mph - N/A   Clear